Kosmos-2584

operational
NORAD ID: 63130 Int'l Des: 2025-042 Owner: VVKOV/IACG Country: RU Constellation: GLONASS
MEOCIRCULAR

Über Kosmos-2584

Beschreibung wird geladen...

Live-Position

3D-Globus wird geladen...

Nächste Überflüge

Höhenverlauf

Altitude vs Time

uPlot chart will show altitude changes over time

Zweizeiliger Elementsatz

1 63130U 25042A 25299.44992214 .00000031 00000-0 00000+0 0 9991
2 63130 64.9503 80.7564 0007081 205.6984 154.2610 2.13103311 5067
Epoch: 26. Okt. 2025 • Age: 11 hours

Aktueller Status

Höhe 19146.6 km
Geschwindigkeit 3.95 km/s
Subsatellitenpunkt -2.34°S, 74.42°E
Startdatum 2. März 2025
Alter 0.6 years
Typ other

Technische Details

Klassifizierung Payload
Masse 974.00 kg
Trockenmasse 800.00 kg
Gesamtmasse 974.00 kg
Länge 2.00 m
Durchmesser 1.00 m
Spannweite 5.00 m
Form Box + 2 Pan
Hersteller RESH
Bus-Typ Ekspress-1000
Phasenstatus In Orbit
Besitzer/Staat VVKOV/IACG/RU

Große Konstellationen

Loading constellations...